Regional Weather Roundup
Issued by NWS

Home | Current Version | Previous Version | Graphics & Text | Print | Product List | Glossary On
Versions: 1 2 3 4 5 6 7 8 9 10 11 12 13 14 15 16 17 18 19 20 21 22 23 24 25 26 27 28 29 30 31 32 33 34 35 36 37 38 39 40 41 42 43 44 45 46 47 48 49 50
000
ASUS43 KOAX 242302
RWRNE

WEATHER ROUNDUP FOR NEBRASKA
NATIONAL WEATHER SERVICE OMAHA NE
600 PM CDT THU APR 24 2014

NOTES: SATELLITE DATA IS BEING USED TO AUGMENT CLOUD COVER ABOVE
       12000 FEET.
       "FAIR" INDICATES FEW OR NO CLOUDS BELOW 12,000 FEET WITH NO
       SIGNIFICANT WEATHER AND/OR OBSTRUCTIONS TO VISIBILITY.

  * THESE STATIONS DO NOT REPORT WEATHER SUCH AS RAIN...SNOW OR FOG.

NEZ001>004-019>022-054>056-250000-
NEBRASKA PANHANDLE

CITY           SKY/WX    TMP DP  RH WIND       PRES   REMARKS
SCOTTSBLUFF    MOSUNNY   65  20  17 W7        29.81F
ALLIANCE       SUNNY     63  16  16 W17       29.81F
CHADRON        SUNNY     66  19  16 NW7G17    29.77F
KIMBALL        MOSUNNY   63  14  14 NW7       29.83S
SIDNEY         MOSUNNY   66  18  15 N9G22     29.85F
$$

NEZ057>060-069>072-079>082-250000-
SOUTHWEST NEBRASKA

CITY           SKY/WX    TMP DP  RH WIND       PRES   REMARKS
NORTH PLATTE   PTSUNNY   66  23  19 W15       29.81S
IMPERIAL       MOSUNNY   68  11  11 W8        29.84S
LEXINGTON      MOSUNNY   69  17  13 NW18G24   29.80R
MCCOOK         MOSUNNY   69  14  12 NW14      29.83S
OGALLALA       PTSUNNY   67  14  13 W9        29.83S
$$

NEZ005>010-023>029-035>040-094-250000-
NORTH CENTRAL NEBRASKA

CITY           SKY/WX    TMP DP  RH WIND       PRES   REMARKS
VALENTINE      MOSUNNY   67  19  16 NW15      29.77S
AINSWORTH      SUNNY     68  18  15 NW9       29.77S
BROKEN BOW     SUNNY     68  12  11 NW10      29.78S
O`NEILL        SUNNY     68  10  10 NW20G28   29.76S
ORD            SUNNY     70  18  13 N15G26    29.75F
THEDFORD       MOSUNNY   69  12  11 W16       29.79S
$$

NEZ041-046>049-061>064-073>077-083>087-250000-
SOUTH CENTRAL NEBRASKA

CITY           SKY/WX    TMP DP  RH WIND       PRES   REMARKS
GRAND ISLAND   SUNNY     70  24  17 NW15G22   29.78S
AURORA         SUNNY     69  31  24 NW15G21   29.78S
HASTINGS       SUNNY     69  27  20 N16       29.79S
HEBRON         SUNNY     68  27  20 NW9G21    29.80R
HOLDREGE       SUNNY     69  18  14 NW10G16   29.80R
KEARNEY *      SUNNY     70  21  16 NW15      29.79S
YORK           SUNNY     66  32  28 NW10      29.77S
$$

NEZ011>018-030>034-042>045-250000-
NORTHEAST NEBRASKA

CITY           SKY/WX    TMP DP  RH WIND       PRES   REMARKS
NORFOLK        SUNNY     69  25  19 NW20G25   29.73R
ALBION         SUNNY     67  24  19 NW17G25   29.75S
BLAIR          CLOUDY    63  40  43 N14       29.73R
COLUMBUS *     MOSUNNY   66  34  30 NW10G16   29.76S
FREMONT        PTSUNNY   66  38  36 N6        29.74S
TEKAMAH        PTSUNNY   65  40  39 N9        29.72R
$$

NEZ050>053-065>068-078-088>093-250000-
SOUTHEAST NEBRASKA

CITY           SKY/WX    TMP DP  RH WIND       PRES   REMARKS
LINCOLN        CLOUDY    68  37  32 NE6       29.76R
OMAHA EPPLEY   CLOUDY    63  42  46 N15       29.74R
BEATRICE       CLOUDY    66  38  36 N8        29.78R
FALLS CITY     CLOUDY    59  47  64 NW8       29.77R
NEBRASKA CITY  CLOUDY    62  45  53 N9        29.76R
PLATTSMOUTH    CLOUDY    63  41  44 N6        29.75R
$$

NEZ044-045-051>053-067-250000-
OMAHA AREA

CITY           SKY/WX    TMP DP  RH WIND       PRES   REMARKS
OMAHA EPPLEY   CLOUDY    63  42  46 N15       29.74R
BLAIR          CLOUDY    63  40  43 N14       29.73R
FREMONT        PTSUNNY   66  38  36 N6        29.74S
MILLARD        CLOUDY    64  39  39 N6        29.74R
OFFUTT AFB     CLOUDY    64  44  48 N9        29.74R
PLATTSMOUTH    CLOUDY    63  41  44 N6        29.75R
WAHOO          FAIR      66  37  35 N9        29.74R
$$



USA.gov is the U.S. government's official web portal to all federal, state and local government web resources and services.